Lambertville, MI

6:24 PM EDT on August 22, 2017 (GMT -0400)
Lambertville

Weather History for KDUH - June, 2013

Change the Weather History Date:

Saturday, June 29, 2013

  Actual Average (KTOL) Record (KTOL)
Temperature  
Mean Temperature 66 °F -  
Max Temperature 73 °F 81 °F 100 °F (1952)
Min Temperature 60 °F 60 °F 47 °F (1943)
Cooling Degree Days 2    
Growing Degree Days 16 (Base 50)    
Moisture  
Dew Point 60 °F    
Average Humidity 81    
Maximum Humidity 94    
Minimum Humidity 65    
Precipitation  
Precipitation 0.00 in - - ()
Sea Level Pressure  
Sea Level Pressure 29.62 in    
Wind  
Wind Speed 2 mph (NNE)    
Max Wind Speed 8 mph    
Max Gust Speed 16 mph    
Visibility 9 miles    
Events      
Averages and records for this station are not official NWS values.
T = Trace of Precipitation, MM = Missing Value Source: NWS Daily Summary

Daily Weather History Graph

Daily Weather History Graph

Search for Another Location

Airport or City:

Trip Planner

Search our weather history database for the weather conditions in past years. The results will help you decide how hot, cold, wet, or windy it might be!

Date:

Astronomy

Jun. 29, 2013 Rise Set
Actual Time 6:02 AM EDT 9:13 PM EDT
Civil Twilight 5:28 AM EDT 9:47 PM EDT
Nautical Twilight 4:44 AM EDT 10:31 PM EDT
Astronomical Twilight 3:52 AM EDT 11:23 PM EDT
Moon 12:35 AM EDT (6/29) 1:19 PM EDT (6/29)
Length of Visible Light 16h 18m
Length of Day
15h 10m
Waning Gibbous, 56% of the Moon is Illuminated
Jun 29
Waning Gibbous
Jun 30
Last Quarter
Jul 8
New
Jul 15
First Quarter
Jul 22
Full

Hourly Weather History & Observations

Time (EDT) Temp. Dew Point Humidity Pressure Visibility Wind Dir Wind Speed Gust Speed Precip Events Conditions
12:15 AM 62.6 °F 60.8 °F 94% 29.59 in 10.0 mi West 3.5 mph - N/A   Scattered Clouds
12:35 AM 62.6 °F 59.0 °F 88% 29.58 in 10.0 mi Calm Calm - N/A   Scattered Clouds
12:55 AM 62.6 °F 59.0 °F 88% 29.58 in 10.0 mi Calm Calm - N/A   Scattered Clouds
1:15 AM 62.6 °F 60.8 °F 94% 29.57 in 10.0 mi Calm Calm - N/A   Clear
1:35 AM 62.6 °F 59.0 °F 88% 29.58 in 10.0 mi Calm Calm - N/A   Clear
1:55 AM 62.6 °F 59.0 °F 88% 29.58 in 10.0 mi Calm Calm - N/A   Clear
2:15 AM 62.6 °F 59.0 °F 88% 29.57 in 10.0 mi Calm Calm - N/A   Clear
2:35 AM 62.6 °F 59.0 °F 88% 29.57 in 10.0 mi Calm Calm - N/A   Clear
2:55 AM 62.6 °F 59.0 °F 88% 29.57 in 10.0 mi Calm Calm - N/A   Clear
3:15 AM 62.6 °F 59.0 °F 88% 29.56 in 7.0 mi WNW 3.5 mph - N/A   Clear
3:35 AM 60.8 °F 59.0 °F 94% 29.57 in 7.0 mi WNW 3.5 mph - N/A   Clear
3:55 AM 60.8 °F 59.0 °F 94% 29.57 in 7.0 mi WNW 3.5 mph - N/A   Clear
4:15 AM 60.8 °F 59.0 °F 94% 29.57 in 7.0 mi Calm Calm - N/A   Clear
4:35 AM 60.8 °F 59.0 °F 94% 29.57 in 7.0 mi Calm Calm - N/A   Clear
4:55 AM 60.8 °F 59.0 °F 94% 29.57 in 5.0 mi Calm Calm - N/A   Clear
5:15 AM 60.8 °F 59.0 °F 94% 29.57 in 7.0 mi WNW 3.5 mph - N/A   Clear
5:35 AM 60.8 °F 59.0 °F 94% 29.58 in 7.0 mi Calm Calm - N/A   Clear
5:55 AM 60.8 °F 57.2 °F 88% 29.59 in 5.0 mi WNW 3.5 mph - N/A   Clear
6:15 AM 60.8 °F 59.0 °F 94% 29.58 in 3.0 mi Calm Calm - N/A   Mostly Cloudy
6:35 AM 60.8 °F 59.0 °F 94% 29.59 in 4.0 mi Calm Calm - N/A   Mostly Cloudy
6:55 AM 60.8 °F 59.0 °F 94% 29.59 in 4.0 mi Calm Calm - N/A   Overcast
7:15 AM 60.8 °F 59.0 °F 94% 29.60 in 4.0 mi Calm Calm - N/A   Overcast
7:35 AM 62.6 °F 59.0 °F 88% 29.60 in 2.5 mi Calm Calm - N/A   Overcast
7:55 AM 62.6 °F 60.8 °F 94% 29.59 in 2.5 mi NW 3.5 mph - N/A   Overcast
8:15 AM 64.4 °F 60.8 °F 88% 29.59 in 3.0 mi Calm Calm - N/A   Overcast
8:35 AM 64.4 °F 62.6 °F 94% 29.60 in 7.0 mi Calm Calm - N/A   Overcast
8:55 AM 64.4 °F 60.8 °F 88% 29.60 in 7.0 mi Calm Calm - N/A   Overcast
9:15 AM 64.4 °F 62.6 °F 94% 29.61 in 7.0 mi Calm Calm - N/A   Overcast
9:35 AM 66.2 °F 62.6 °F 88% 29.61 in 10.0 mi NNW 3.5 mph - N/A   Overcast
9:55 AM 68.0 °F 60.8 °F 78% 29.61 in 10.0 mi Calm Calm - N/A   Overcast
10:15 AM 69.8 °F 62.6 °F 78% 29.61 in 10.0 mi Calm Calm - N/A   Overcast
10:35 AM 68.0 °F 62.6 °F 83% 29.61 in 10.0 mi NNE 3.5 mph - N/A   Overcast
10:55 AM 69.8 °F 60.8 °F 73% 29.62 in 10.0 mi Calm Calm - N/A   Overcast
11:15 AM 69.8 °F 62.6 °F 78% 29.62 in 10.0 mi Calm Calm - N/A   Mostly Cloudy
11:35 AM 71.6 °F 60.8 °F 69% 29.62 in 10.0 mi Calm Calm - N/A   Scattered Clouds
11:55 AM 71.6 °F 60.8 °F 69% 29.61 in 10.0 mi NNW 5.8 mph - N/A   Mostly Cloudy
12:15 PM 71.6 °F 62.6 °F 73% 29.61 in 10.0 mi North 4.6 mph - N/A   Overcast
12:35 PM 71.6 °F 62.6 °F 73% 29.61 in 10.0 mi NNW 3.5 mph - N/A   Overcast
12:55 PM 71.6 °F 62.6 °F 73% 29.62 in 10.0 mi Calm Calm - N/A   Overcast
1:15 PM 73.4 °F 62.6 °F 69% 29.61 in 10.0 mi Calm Calm - N/A   Overcast
1:35 PM 73.4 °F 62.6 °F 69% 29.61 in 10.0 mi West 3.5 mph - N/A   Mostly Cloudy
1:55 PM 73.4 °F 62.6 °F 69% 29.60 in 10.0 mi North 5.8 mph - N/A   Mostly Cloudy
2:15 PM 73.4 °F 60.8 °F 65% 29.61 in 10.0 mi North 4.6 mph - N/A   Mostly Cloudy
2:35 PM 73.4 °F 62.6 °F 69% 29.61 in 10.0 mi East 5.8 mph - N/A   Overcast
2:55 PM 71.6 °F 60.8 °F 69% 29.62 in 10.0 mi ENE 8.1 mph 16.1 mph N/A   Overcast
3:15 PM 71.6 °F 60.8 °F 69% 29.62 in 10.0 mi NE 6.9 mph - N/A   Overcast
3:35 PM 69.8 °F 60.8 °F 73% 29.63 in 10.0 mi East 6.9 mph - N/A   Overcast
3:55 PM 69.8 °F 62.6 °F 78% 29.64 in 10.0 mi East 4.6 mph - N/A   Overcast
4:15 PM 69.8 °F 62.6 °F 78% 29.64 in 10.0 mi ESE 4.6 mph - N/A   Overcast
4:35 PM 69.8 °F 62.6 °F 78% 29.64 in 10.0 mi Calm Calm - N/A   Mostly Cloudy
4:55 PM 69.8 °F 62.6 °F 78% 29.64 in 10.0 mi Calm Calm - N/A   Mostly Cloudy
5:15 PM 71.6 °F 60.8 °F 69% 29.64 in 10.0 mi Calm Calm - N/A   Mostly Cloudy
5:35 PM 71.6 °F 62.6 °F 73% 29.64 in 10.0 mi ENE 3.5 mph - N/A   Mostly Cloudy
5:55 PM 71.6 °F 62.6 °F 73% 29.65 in 10.0 mi Calm Calm - N/A   Scattered Clouds
6:15 PM 71.6 °F 62.6 °F 73% 29.65 in 10.0 mi SE 4.6 mph - N/A   Mostly Cloudy
6:35 PM 71.6 °F 60.8 °F 69% 29.65 in 10.0 mi East 3.5 mph - N/A   Mostly Cloudy
6:55 PM 71.6 °F 62.6 °F 73% 29.66 in 10.0 mi Calm Calm - N/A   Overcast
7:15 PM 71.6 °F 60.8 °F 69% 29.66 in 10.0 mi NNE 3.5 mph - N/A   Mostly Cloudy
7:35 PM 69.8 °F 62.6 °F 78% 29.67 in 10.0 mi Calm Calm - N/A   Mostly Cloudy
7:55 PM 68.0 °F 62.6 °F 83% 29.67 in 10.0 mi North 3.5 mph - N/A   Overcast
8:15 PM 68.0 °F 60.8 °F 78% 29.68 in 10.0 mi NNE 8.1 mph - N/A   Overcast
8:35 PM 68.0 °F 60.8 °F 78% 29.69 in 10.0 mi NNE 5.8 mph - N/A   Overcast
8:55 PM 68.0 °F 60.8 °F 78% 29.70 in 10.0 mi NNE 3.5 mph - N/A   Overcast
9:15 PM 68.0 °F 60.8 °F 78% 29.70 in 10.0 mi Calm Calm - N/A   Overcast
9:35 PM 68.0 °F 59.0 °F 73% 29.71 in 10.0 mi ENE 3.5 mph - N/A   Overcast
9:55 PM 68.0 °F 59.0 °F 73% 29.72 in 10.0 mi Calm Calm - N/A   Overcast
10:15 PM 68.0 °F 57.2 °F 68% 29.73 in 10.0 mi NE 3.5 mph - N/A   Overcast
10:35 PM 68.0 °F 59.0 °F 73% 29.73 in 10.0 mi NNE 4.6 mph - N/A   Overcast
10:55 PM 68.0 °F 57.2 °F 68% 29.73 in 10.0 mi NNE 5.8 mph - N/A   Overcast
11:15 PM 66.2 °F 55.4 °F 68% 29.73 in 10.0 mi NNE 6.9 mph - N/A   Overcast
11:35 PM 64.4 °F 55.4 °F 73% 29.73 in 10.0 mi North 4.6 mph - N/A   Overcast
11:55 PM 64.4 °F 55.4 °F 73% 29.73 in 10.0 mi NNE 3.5 mph - N/A   Overcast